Location: Beaver Brook Station
(42.3793°N, 71.2203°W)
Time: 01:50:15
(UTC+00:00)

Cosmos 968 Rocket - Pass Details

Date: 29 October 2020
Orbit: 741 x 770 km, 74.0° (Epoch: 05 December)

Event Time Altitude Azimuth Distance (km) Brightness Sun altitude
Rises 23:18:03 0° 336° (NNW) 3,233 7.0 -18.4°
Reaches altitude 10° 23:20:28 10° 333° (NNW) 2,299 6.3 -18.8°
Maximum altitude 23:25:35 60° 255° (WSW) 866 4.0 -19.8°
Drops below altitude 10° 23:30:37 10° 176° (S) 2,263 5.9 -20.7°
Sets 23:32:59 0° 173° (S) 3,179 6.6 -21.1°
